TimeCST,TemperatureF,Dew PointF,Humidity,Sea Level PressureIn,VisibilityMPH,Wind Direction,Wind SpeedMPH,Gust SpeedMPH,PrecipitationIn,Events,Conditions,WindDirDegrees,DateUTC
12:09 AM,73.4,69.8,88,29.68,10.0,South,19.6,26.5,N/A,,Overcast,180,2013-01-13 06:09:00
12:52 AM,73.9,70.0,87,29.71,10.0,South,16.1,27.6,N/A,,Overcast,190,2013-01-13 06:52:00
1:21 AM,73.4,69.8,88,29.72,10.0,SSW,16.1,21.9,N/A,,Overcast,200,2013-01-13 07:21:00
1:52 AM,73.9,69.1,85,29.73,10.0,SSW,15.0,-,N/A,,Overcast,200,2013-01-13 07:52:00
2:52 AM,73.0,69.1,87,29.72,10.0,South,11.5,-,N/A,,Mostly Cloudy,180,2013-01-13 08:52:00
3:52 AM,73.0,69.1,87,29.74,9.0,South,5.8,-,N/A,,Overcast,180,2013-01-13 09:52:00
4:52 AM,73.0,69.1,87,29.75,6.0,West,12.7,17.3,N/A,,Overcast,270,2013-01-13 10:52:00
4:59 AM,69.8,66.2,88,29.76,4.0,WNW,20.7,25.3,0.00,Rain,Light Rain,300,2013-01-13 10:59:00
5:06 AM,68.0,66.2,94,29.77,4.0,WNW,21.9,-,0.00,Rain,Light Rain,290,2013-01-13 11:06:00
5:52 AM,60.1,57.0,90,29.82,7.0,NNW,29.9,36.8,0.00,Rain,Light Rain,330,2013-01-13 11:52:00
6:52 AM,55.0,53.1,93,29.89,5.0,NNW,19.6,27.6,0.00,Rain,Light Rain,340,2013-01-13 12:52:00
7:15 AM,53.6,50.0,88,29.92,10.0,NNW,26.5,32.2,0.00,,Overcast,340,2013-01-13 13:15:00
7:52 AM,53.1,48.9,86,29.95,10.0,NNW,24.2,31.1,0.01,,Overcast,340,2013-01-13 13:52:00
8:52 AM,53.1,44.1,71,30.00,10.0,NNW,16.1,-,N/A,,Overcast,340,2013-01-13 14:52:00
9:52 AM,55.0,42.1,62,30.02,10.0,North,24.2,31.1,N/A,,Overcast,350,2013-01-13 15:52:00
10:33 AM,55.4,41.0,58,30.05,10.0,NNW,24.2,29.9,N/A,,Overcast,340,2013-01-13 16:33:00
10:52 AM,55.4,39.2,54,30.05,10.0,NNW,21.9,27.6,N/A,,Overcast,340,2013-01-13 16:52:00
11:52 AM,57.0,37.9,49,30.04,10.0,NNW,20.7,-,N/A,,Overcast,330,2013-01-13 17:52:00
12:52 PM,57.9,37.0,46,30.02,10.0,NNW,23.0,-,N/A,,Mostly Cloudy,340,2013-01-13 18:52:00
1:52 PM,59.0,36.0,42,30.02,10.0,NNW,20.7,-,N/A,,Overcast,340,2013-01-13 19:52:00
2:52 PM,60.1,36.0,41,30.01,10.0,North,17.3,21.9,N/A,,Overcast,360,2013-01-13 20:52:00
3:52 PM,60.1,35.1,39,30.02,10.0,North,13.8,-,N/A,,Overcast,350,2013-01-13 21:52:00
4:52 PM,60.1,34.0,38,30.03,10.0,North,16.1,26.5,N/A,,Mostly Cloudy,360,2013-01-13 22:52:00
5:52 PM,59.0,35.1,41,30.03,10.0,North,13.8,-,N/A,,Overcast,360,2013-01-13 23:52:00
6:52 PM,57.9,35.1,42,30.04,10.0,North,9.2,-,N/A,,Overcast,350,2013-01-14 00:52:00
7:52 PM,57.9,35.1,42,30.06,10.0,North,8.1,-,N/A,,Overcast,350,2013-01-14 01:52:00
8:52 PM,57.0,36.0,45,30.07,10.0,North,8.1,-,N/A,,Overcast,350,2013-01-14 02:52:00
9:52 PM,55.9,34.0,44,30.07,10.0,North,12.7,-,N/A,,Overcast,360,2013-01-14 03:52:00
10:52 PM,55.0,36.0,49,30.06,10.0,North,10.4,-,N/A,,Overcast,10,2013-01-14 04:52:00
11:52 PM,55.0,37.9,53,30.06,10.0,NNE,8.1,-,N/A,,Overcast,20,2013-01-14 05:52:00